Chiricana — 3EKU3 — position and weather

sailwx.info

Track history (hours):
 
Tides and Currents Weather Stations Pressure Air Temp Water Temp Dewpoint Dewpoint Depression Visibility Wind Speed Wind Dir Waves Ship Positions

Chiricana

Last reported at 2014-Jul-23 23:34 UTC. Time now 2014-Jul-24 08:28 UTC.
Position N 39°04' W 023°41'.

Length 300 m; draft 12.4 m.

Type: Ship (hazmat cat B). MMSI: 372829000.

Date/timePositionNaut miles runAvg speedWind from/ knotsBaromVisibWave heightAir tempDewpointWater temp
2014-Jul-23 23:34N 39°04' W 023°41'1615.6
2014-Jul-23 22:34N 39°07' W 024°00'1515.3
2014-Jul-23 21:33N 39°10' W 024°20'1515.2
2014-Jul-23 20:34N 39°12' W 024°39'1515.3
2014-Jul-23 19:33N 39°15' W 024°58'1515.2
2014-Jul-23 18:33N 39°18' W 025°18'1514.9
2014-Jul-23 17:34N 39°20' W 025°37'3115.2
2014-Jul-23 15:30N 39°25' W 026°17'1717.2
2014-Jul-23 14:32N 39°28' W 026°38'1717.1
2014-Jul-23 13:33N 39°30' W 026°59'1717.0
2014-Jul-23 12:32N 39°33' W 027°22'1717.0
2014-Jul-23 11:33N 39°35' W 027°43'1717.1
2014-Jul-23 10:33N 39°38' W 028°05'1717.2
2014-Jul-23 09:33N 39°40' W 028°27'1717.2
2014-Jul-23 08:34N 39°43' W 028°49'1717.1
2014-Jul-23 07:34N 39°45' W 029°11'1817.2
2014-Jul-23 06:31N 39°47' W 029°34'1617.0
2014-Jul-23 05:34N 39°50' W 029°55'2017.1
2014-Jul-23 04:24N 39°52' W 030°21'1617.3
2014-Jul-23 03:30N 39°54' W 030°41'1617.1
2014-Jul-23 02:33N 39°56' W 031°02'1717.1
2014-Jul-23 01:33N 39°58' W 031°24'1717.0
2014-Jul-23 00:33N 39°60' W 031°46'2117.1
2014-Jul-22 23:20N 40°01' W 032°13'3517.2
2014-Jul-22 21:18N 40°03' W 032°59'  
2014-Jul-20 12:00N 38°42' W 054°30'72217.2 270 / 171025.0 1.1 2.027.0 22.0
2014-Jul-18 18:00N 35°24' W 069°00'   180 / 151022.0 1.028.0
2014-Jul-14 06:33N 32°03' W 080°56'9 8.7
2014-Jul-14 05:33N 32°06' W 081°06'2 2.4
2014-Jul-14 04:32N 32°07' W 081°08'0 0.0
2014-Jul-14 03:25N 32°07' W 081°08'0 0.0
2014-Jul-14 02:25N 32°07' W 081°08'0 0.0
2014-Jul-14 01:31N 32°07' W 081°08'0 0.0
2014-Jul-14 00:31N 32°07' W 081°08'  
Track history (hours):
 
Tides and Currents Weather Stations Pressure Air Temp Water Temp Dewpoint Dewpoint Depression Visibility Wind Speed Wind Dir Waves Ship Positions

Chiricana

Last reported at 2014-Jul-23 23:34 UTC. Time now 2014-Jul-24 08:28 UTC.
Position N 39°04' W 023°41'.

Length 300 m; draft 12.4 m.

Type: Ship (hazmat cat B). MMSI: 372829000.

Date/timePositionNaut miles runAvg speedWind from/ knotsBaromVisibWave heightAir tempDewpointWater temp
2014-Jul-23 23:34N 39°04' W 023°41'1615.6
2014-Jul-23 22:34N 39°07' W 024°00'1515.3
2014-Jul-23 21:33N 39°10' W 024°20'1515.2
2014-Jul-23 20:34N 39°12' W 024°39'1515.3
2014-Jul-23 19:33N 39°15' W 024°58'1515.2
2014-Jul-23 18:33N 39°18' W 025°18'1514.9
2014-Jul-23 17:34N 39°20' W 025°37'3115.2
2014-Jul-23 15:30N 39°25' W 026°17'1717.2
2014-Jul-23 14:32N 39°28' W 026°38'1717.1
2014-Jul-23 13:33N 39°30' W 026°59'1717.0
2014-Jul-23 12:32N 39°33' W 027°22'1717.0
2014-Jul-23 11:33N 39°35' W 027°43'1717.1
2014-Jul-23 10:33N 39°38' W 028°05'1717.2
2014-Jul-23 09:33N 39°40' W 028°27'1717.2
2014-Jul-23 08:34N 39°43' W 028°49'1717.1
2014-Jul-23 07:34N 39°45' W 029°11'1817.2
2014-Jul-23 06:31N 39°47' W 029°34'1617.0
2014-Jul-23 05:34N 39°50' W 029°55'2017.1
2014-Jul-23 04:24N 39°52' W 030°21'1617.3
2014-Jul-23 03:30N 39°54' W 030°41'1617.1
2014-Jul-23 02:33N 39°56' W 031°02'1717.1
2014-Jul-23 01:33N 39°58' W 031°24'1717.0
2014-Jul-23 00:33N 39°60' W 031°46'2117.1
2014-Jul-22 23:20N 40°01' W 032°13'3517.2
2014-Jul-22 21:18N 40°03' W 032°59'  
2014-Jul-20 12:00N 38°42' W 054°30'72217.2 270 / 171025.0 1.1 2.027.0 22.0
2014-Jul-18 18:00N 35°24' W 069°00'   180 / 151022.0 1.028.0
2014-Jul-14 06:33N 32°03' W 080°56'9 8.7
2014-Jul-14 05:33N 32°06' W 081°06'2 2.4
2014-Jul-14 04:32N 32°07' W 081°08'0 0.0
2014-Jul-14 03:25N 32°07' W 081°08'0 0.0
2014-Jul-14 02:25N 32°07' W 081°08'0 0.0
2014-Jul-14 01:31N 32°07' W 081°08'0 0.0
2014-Jul-14 00:31N 32°07' W 081°08'  

Dump ship's entire track history